TimeEST,TemperatureF,Dew PointF,Humidity,Sea Level PressureIn,VisibilityMPH,Wind Direction,Wind SpeedMPH,Gust SpeedMPH,PrecipitationIn,Events,Conditions,WindDirDegrees,DateUTC
12:00 AM,30.2,28.4,93,30.05,1.5,West,6.9,-,0.01,Snow,Light Snow,280,2013-02-03 05:00:00
12:10 AM,28.4,26.6,93,30.05,1.2,NW,10.4,-,0.01,Snow,Light Snow,310,2013-02-03 05:10:00
12:35 AM,28.4,24.8,86,30.03,2.0,NW,12.7,20.7,0.01,Snow,Light Snow,310,2013-02-03 05:35:00
12:42 AM,28.4,24.8,86,30.03,1.8,NW,10.4,-,0.01,Snow,Light Snow,310,2013-02-03 05:42:00
12:53 AM,27.0,25.0,92,30.04,1.5,NW,12.7,19.6,0.01,Snow,Light Snow,320,2013-02-03 05:53:00
1:02 AM,26.6,24.8,93,30.03,1.8,NW,10.4,19.6,0.00,Snow,Light Snow,310,2013-02-03 06:02:00
1:09 AM,26.6,24.8,93,30.02,2.0,NW,8.1,-,0.00,Snow,Light Snow,320,2013-02-03 06:09:00
1:28 AM,26.6,24.8,93,30.02,3.0,NNW,11.5,-,0.00,Snow,Light Snow,330,2013-02-03 06:28:00
1:37 AM,26.6,23.0,86,30.02,2.5,NNW,9.2,-,0.00,Snow,Light Snow,330,2013-02-03 06:37:00
1:53 AM,26.1,23.0,88,30.02,3.0,NW,8.1,-,0.00,Snow,Light Snow,320,2013-02-03 06:53:00
2:05 AM,26.6,24.8,93,30.01,2.5,NNW,8.1,-,0.00,Snow,Light Snow,340,2013-02-03 07:05:00
2:53 AM,25.0,23.0,92,30.01,3.0,North,4.6,-,0.00,Snow,Light Snow,350,2013-02-03 07:53:00
3:53 AM,25.0,19.9,81,29.99,10.0,North,4.6,-,0.00,,Overcast,360,2013-02-03 08:53:00
4:53 AM,24.1,19.0,81,29.98,10.0,Calm,Calm,-,N/A,,Mostly Cloudy,0,2013-02-03 09:53:00
5:53 AM,21.9,17.1,82,29.95,10.0,Calm,Calm,-,N/A,,Partly Cloudy,0,2013-02-03 10:53:00
6:53 AM,19.0,16.0,88,29.95,10.0,Calm,Calm,-,N/A,,Clear,0,2013-02-03 11:53:00
7:53 AM,19.9,18.0,92,29.97,10.0,Calm,Calm,-,N/A,,Overcast,0,2013-02-03 12:53:00
8:53 AM,26.1,19.9,78,29.94,10.0,NNW,5.8,-,N/A,,Overcast,330,2013-02-03 13:53:00
9:53 AM,27.0,21.9,81,29.91,10.0,NNW,8.1,-,N/A,,Overcast,330,2013-02-03 14:53:00
10:53 AM,30.0,24.1,79,29.87,10.0,North,8.1,-,N/A,,Partly Cloudy,350,2013-02-03 15:53:00
11:53 AM,32.0,25.0,75,29.83,10.0,NNE,5.8,-,N/A,,Clear,30,2013-02-03 16:53:00
12:53 PM,33.1,24.1,70,29.81,10.0,North,5.8,-,N/A,,Clear,10,2013-02-03 17:53:00
1:53 PM,34.0,21.0,59,29.77,10.0,North,4.6,-,N/A,,Clear,350,2013-02-03 18:53:00
2:53 PM,33.1,21.0,61,29.75,10.0,NNW,8.1,-,N/A,,Scattered Clouds,340,2013-02-03 19:53:00
3:24 PM,33.8,21.2,60,29.74,10.0,North,10.4,-,N/A,,Mostly Cloudy,350,2013-02-03 20:24:00
3:49 PM,32.0,21.2,64,29.72,10.0,North,15.0,-,N/A,,Scattered Clouds,350,2013-02-03 20:49:00
3:53 PM,32.0,21.9,66,29.72,10.0,North,13.8,-,N/A,,Partly Cloudy,350,2013-02-03 20:53:00
4:53 PM,28.9,23.0,78,29.71,10.0,North,9.2,-,N/A,,Clear,350,2013-02-03 21:53:00
5:53 PM,28.9,23.0,78,29.73,10.0,NNW,10.4,-,N/A,,Mostly Cloudy,340,2013-02-03 22:53:00
6:10 PM,28.4,23.0,80,29.72,10.0,NNW,11.5,-,N/A,,Mostly Cloudy,330,2013-02-03 23:10:00
6:53 PM,28.9,21.9,75,29.74,10.0,NW,11.5,-,N/A,,Overcast,320,2013-02-03 23:53:00
7:53 PM,28.0,21.9,78,29.72,10.0,NNW,16.1,23.0,N/A,,Overcast,330,2013-02-04 00:53:00
8:53 PM,27.0,21.0,78,29.70,10.0,NNW,16.1,21.9,N/A,,Overcast,330,2013-02-04 01:53:00
9:53 PM,27.0,21.0,78,29.70,10.0,NW,15.0,-,N/A,,Overcast,320,2013-02-04 02:53:00
10:53 PM,27.0,21.0,78,29.71,10.0,NW,13.8,-,N/A,,Overcast,320,2013-02-04 03:53:00
11:53 PM,26.1,23.0,88,29.72,2.0,NW,12.7,-,0.00,Snow,Light Snow,320,2013-02-04 04:53:00